Simultaneous Nadir Overpasses (SNOs) Predictions

Prediction of SNOs between AQUA and GOES-15 Satellite Orbit:

Table of predicted SNOs for the next 14.0 days since TLE Epoch: 3/8/2014
Index Date Time (AQUA) AQUA Lat,Lon GOES-15 Lat,Lon Distance(km) Time Diff (sec)
1 03/08/2014 22:23:16 0.66,-131.87 0.05,-134.80 333.80 80
2 03/09/2014 10:44:33 0.41,-137.03 -0.04,-134.77 255.90 80
3 03/11/2014 10:32:24 -0.14,-134.07 -0.04,-134.70 70.80 80
4 03/13/2014 10:20:16 -0.79,-131.12 -0.03,-134.61 397.19 80
5 03/13/2014 22:41:40 -0.36,-136.31 0.03,-134.60 194.75 80
6 03/15/2014 22:29:31 0.26,-133.35 0.03,-134.51 131.45 80
7 03/16/2014 10:50:47 0.84,-138.51 -0.02,-134.49 457.74 80
8 03/17/2014 22:17:21 0.86,-130.39 0.03,-134.42 457.24 80
9 03/18/2014 10:38:37 0.24,-135.55 -0.03,-134.39 132.20 80
10 03/20/2014 10:26:27 -0.40,-132.60 -0.03,-134.29 192.80 80
11 03/20/2014 22:47:51 -0.72,-137.78 0.02,-134.26 400.26 80




NCC Satellite Simultaneous Nadir Overpasses (SNOs) Prediction Service
